Time,TemperatureF,DewpointF,PressureIn,WindDirection,WindDirectionDegrees,WindSpeedMPH,WindSpeedGustMPH,Humidity,HourlyPrecipIn,Conditions,Clouds,dailyrainin,SolarRadiationWatts/m^2,SoftwareType,DateUTC
2013-04-06 00:02:00,32.7,26.0,30.09,NE,50,0.0,3.0,75,0.00,,,0.00,0,weatherlink.com 1.10,2013-04-06 04:02:00,
2013-04-06 00:18:00,32.8,26.0,30.09,NE,50,3.0,4.0,76,0.00,,,0.00,0,weatherlink.com 1.10,2013-04-06 04:18:00,
2013-04-06 00:32:00,32.8,26.0,30.09,ENE,62,4.0,5.0,76,0.00,,,0.00,0,weatherlink.com 1.10,2013-04-06 04:32:00,
2013-04-06 00:47:00,33.0,26.0,30.09,ENE,73,5.0,7.0,76,0.00,,,0.00,0,weatherlink.com 1.10,2013-04-06 04:47:00,
2013-04-06 01:03:00,33.0,26.0,30.09,NE,55,3.0,7.0,76,0.00,,,0.00,0,weatherlink.com 1.10,2013-04-06 05:03:00,
2013-04-06 01:17:00,33.1,26.0,30.08,East,93,2.0,6.0,76,0.00,,,0.00,0,weatherlink.com 1.10,2013-04-06 05:17:00,
2013-04-06 01:32:00,33.4,27.0,30.07,ENE,68,7.0,8.0,76,0.00,,,0.00,0,weatherlink.com 1.10,2013-04-06 05:32:00,
2013-04-06 01:48:00,33.7,27.0,30.08,ENE,70,3.0,5.0,75,0.00,,,0.00,0,weatherlink.com 1.10,2013-04-06 05:48:00,
2013-04-06 02:03:00,33.8,26.0,30.08,ENE,65,2.0,5.0,74,0.00,,,0.00,0,weatherlink.com 1.10,2013-04-06 06:03:00,
2013-04-06 02:18:00,33.9,26.0,30.08,ENE,66,2.0,7.0,74,0.00,,,0.00,0,weatherlink.com 1.10,2013-04-06 06:18:00,
2013-04-06 02:33:00,34.0,27.0,30.08,ENE,70,1.0,7.0,75,0.00,,,0.00,0,weatherlink.com 1.10,2013-04-06 06:33:00,
2013-04-06 02:48:00,34.1,27.0,30.07,NE,56,2.0,6.0,74,0.00,,,0.00,0,weatherlink.com 1.10,2013-04-06 06:48:00,
2013-04-06 03:03:00,34.4,27.0,30.07,ENE,64,3.0,7.0,73,0.00,,,0.00,0,weatherlink.com 1.10,2013-04-06 07:03:00,
2013-04-06 03:18:00,34.8,27.0,30.08,ENE,64,3.0,4.0,73,0.00,,,0.00,0,weatherlink.com 1.10,2013-04-06 07:18:00,
2013-04-06 03:33:00,35.0,27.0,30.08,East,83,3.0,7.0,72,0.00,,,0.00,0,weatherlink.com 1.10,2013-04-06 07:33:00,
2013-04-06 03:49:00,35.3,27.0,30.07,East,79,2.0,5.0,71,0.00,,,0.00,0,weatherlink.com 1.10,2013-04-06 07:49:00,
2013-04-06 04:04:00,35.3,27.0,30.08,ENE,62,1.0,6.0,71,0.00,,,0.00,0,weatherlink.com 1.10,2013-04-06 08:04:00,
2013-04-06 04:19:00,35.5,27.0,30.07,East,84,1.0,3.0,70,0.00,,,0.00,0,weatherlink.com 1.10,2013-04-06 08:19:00,
2013-04-06 04:34:00,35.4,27.0,30.07,East,89,5.0,7.0,71,0.00,,,0.00,0,weatherlink.com 1.10,2013-04-06 08:34:00,
2013-04-06 05:19:00,35.2,27.0,30.07,ESE,105,3.0,7.0,72,0.00,,,0.00,0,weatherlink.com 1.10,2013-04-06 09:19:00,
2013-04-06 06:06:00,37.8,27.0,30.06,ENE,78,3.0,9.0,65,0.00,,,0.00,0,weatherlink.com 1.10,2013-04-06 10:06:00,
2013-04-06 06:20:00,38.5,26.0,30.05,East,98,2.0,10.0,62,0.00,,,0.00,0,weatherlink.com 1.10,2013-04-06 10:20:00,
2013-04-06 06:35:00,38.8,27.0,30.05,SE,137,10.0,11.0,62,0.00,,,0.00,0,weatherlink.com 1.10,2013-04-06 10:35:00,
2013-04-06 06:50:00,39.1,26.0,30.05,ESE,122,11.0,13.0,60,0.00,,,0.00,0,weatherlink.com 1.10,2013-04-06 10:50:00,
2013-04-06 07:06:00,39.1,26.0,30.05,ESE,114,8.0,12.0,60,0.00,,,0.00,0,weatherlink.com 1.10,2013-04-06 11:06:00,
2013-04-06 07:20:00,39.1,26.0,30.05,SE,143,1.0,11.0,60,0.00,,,0.00,0,weatherlink.com 1.10,2013-04-06 11:20:00,
2013-04-06 07:35:00,39.1,27.0,30.06,ENE,72,2.0,13.0,61,0.00,,,0.00,9,weatherlink.com 1.10,2013-04-06 11:35:00,
2013-04-06 07:51:00,39.2,26.0,30.07,SE,129,8.0,14.0,60,0.00,,,0.00,25,weatherlink.com 1.10,2013-04-06 11:51:00,
2013-04-06 08:21:00,39.7,27.0,30.08,SSE,164,5.0,11.0,60,0.00,,,0.00,67,weatherlink.com 1.10,2013-04-06 12:21:00,
2013-04-06 09:06:00,40.9,27.0,30.07,SSE,147,9.0,14.0,58,0.00,,,0.00,148,weatherlink.com 1.10,2013-04-06 13:06:00,
2013-04-06 09:52:00,42.5,28.0,30.05,SE,134,7.0,16.0,56,0.00,,,0.00,206,weatherlink.com 1.10,2013-04-06 13:52:00,
2013-04-06 10:07:00,43.3,28.0,30.04,SE,137,12.0,17.0,55,0.00,,,0.00,197,weatherlink.com 1.10,2013-04-06 14:07:00,
2013-04-06 10:22:00,44.1,28.0,30.04,SSE,156,14.0,16.0,53,0.00,,,0.00,330,weatherlink.com 1.10,2013-04-06 14:22:00,
2013-04-06 10:37:00,45.1,28.0,30.03,SSE,168,9.0,18.0,52,0.00,,,0.00,415,weatherlink.com 1.10,2013-04-06 14:37:00,
2013-04-06 10:52:00,45.8,28.0,30.02,SE,135,10.0,20.0,51,0.00,,,0.00,346,weatherlink.com 1.10,2013-04-06 14:52:00,
2013-04-06 11:07:00,46.3,28.0,30.01,ESE,119,14.0,22.0,50,0.00,,,0.00,348,weatherlink.com 1.10,2013-04-06 15:07:00,
2013-04-06 11:23:00,47.0,29.0,30.00,SE,143,11.0,25.0,49,0.00,,,0.00,380,weatherlink.com 1.10,2013-04-06 15:23:00,
2013-04-06 11:40:00,48.3,29.0,30.00,SSE,168,9.0,19.0,48,0.00,,,0.00,462,weatherlink.com 1.10,2013-04-06 15:40:00,
2013-04-06 11:53:00,48.8,28.0,30.00,SE,145,15.0,24.0,45,0.00,,,0.00,496,weatherlink.com 1.10,2013-04-06 15:53:00,
2013-04-06 12:08:00,49.5,29.0,29.99,SE,133,12.0,25.0,45,0.00,,,0.00,564,weatherlink.com 1.10,2013-04-06 16:08:00,
2013-04-06 12:23:00,50.4,29.0,29.98,SSE,153,8.0,20.0,44,0.00,,,0.00,589,weatherlink.com 1.10,2013-04-06 16:23:00,
2013-04-06 12:38:00,51.0,29.0,29.97,South,191,7.0,23.0,43,0.00,,,0.00,564,weatherlink.com 1.10,2013-04-06 16:38:00,
2013-04-06 12:53:00,52.0,30.0,29.96,SE,131,9.0,24.0,43,0.00,,,0.00,584,weatherlink.com 1.10,2013-04-06 16:53:00,
2013-04-06 13:09:00,53.0,30.0,29.94,SE,142,9.0,29.0,42,0.00,,,0.00,745,weatherlink.com 1.10,2013-04-06 17:09:00,
2013-04-06 13:24:00,54.0,31.0,29.94,SSE,166,11.0,21.0,41,0.00,,,0.00,763,weatherlink.com 1.10,2013-04-06 17:24:00,
2013-04-06 13:39:00,55.2,31.0,29.93,SSE,147,9.0,25.0,40,0.00,,,0.00,786,weatherlink.com 1.10,2013-04-06 17:39:00,
2013-04-06 13:54:00,55.7,32.0,29.92,SE,125,13.0,24.0,40,0.00,,,0.00,766,weatherlink.com 1.10,2013-04-06 17:54:00,
2013-04-06 14:25:00,57.8,33.0,29.88,ESE,122,8.0,24.0,39,0.00,,,0.00,816,weatherlink.com 1.10,2013-04-06 18:25:00,
2013-04-06 14:39:00,59.1,33.0,29.87,SE,137,15.0,18.0,38,0.00,,,0.00,670,weatherlink.com 1.10,2013-04-06 18:39:00,
2013-04-06 14:55:00,58.6,34.0,29.85,South,174,6.0,23.0,39,0.00,,,0.00,919,weatherlink.com 1.10,2013-04-06 18:55:00,
2013-04-06 15:12:00,59.4,34.0,29.84,SSE,158,4.0,27.0,39,0.00,,,0.00,452,weatherlink.com 1.10,2013-04-06 19:12:00,
2013-04-06 15:25:00,60.3,34.0,29.82,SSE,162,11.0,25.0,38,0.00,,,0.00,802,weatherlink.com 1.10,2013-04-06 19:25:00,
2013-04-06 15:40:00,61.1,35.0,29.80,SE,137,12.0,25.0,38,0.00,,,0.00,770,weatherlink.com 1.10,2013-04-06 19:40:00,
2013-04-06 15:56:00,61.8,35.0,29.79,SE,143,10.0,23.0,37,0.00,,,0.00,687,weatherlink.com 1.10,2013-04-06 19:56:00,
2013-04-06 16:10:00,62.8,36.0,29.77,SSE,153,10.0,23.0,37,0.00,,,0.00,684,weatherlink.com 1.10,2013-04-06 20:10:00,
2013-04-06 16:26:00,63.5,37.0,29.75,SSE,168,6.0,28.0,37,0.00,,,0.00,740,weatherlink.com 1.10,2013-04-06 20:26:00,
2013-04-06 16:42:00,64.4,37.0,29.74,SSE,148,9.0,22.0,37,0.00,,,0.00,722,weatherlink.com 1.10,2013-04-06 20:42:00,
2013-04-06 17:12:00,64.7,38.0,29.72,ESE,122,12.0,24.0,37,0.00,,,0.00,557,weatherlink.com 1.10,2013-04-06 21:12:00,
2013-04-06 17:41:00,65.4,38.0,29.71,SSE,163,12.0,23.0,36,0.00,,,0.00,192,weatherlink.com 1.10,2013-04-06 21:41:00,
2013-04-06 17:56:00,65.1,38.0,29.71,South,172,14.0,18.0,37,0.00,,,0.00,230,weatherlink.com 1.10,2013-04-06 21:56:00,
2013-04-06 18:12:00,65.4,38.0,29.71,SSE,150,19.0,20.0,36,0.00,,,0.00,276,weatherlink.com 1.10,2013-04-06 22:12:00,
2013-04-06 18:27:00,64.9,38.0,29.71,SSE,158,17.0,25.0,37,0.00,,,0.00,274,weatherlink.com 1.10,2013-04-06 22:27:00,
2013-04-06 18:42:00,65.1,38.0,29.71,SSW,195,14.0,25.0,37,0.00,,,0.00,292,weatherlink.com 1.10,2013-04-06 22:42:00,
2013-04-06 18:57:00,64.8,38.0,29.71,SSE,147,8.0,26.0,37,0.00,,,0.00,153,weatherlink.com 1.10,2013-04-06 22:57:00,
2013-04-06 19:27:00,63.9,38.0,29.70,South,169,3.0,20.0,39,0.00,,,0.00,86,weatherlink.com 1.10,2013-04-06 23:27:00,
2013-04-06 19:42:00,63.6,39.0,29.70,SSE,161,6.0,19.0,40,0.00,,,0.00,58,weatherlink.com 1.10,2013-04-06 23:42:00,
2013-04-06 19:57:00,63.1,38.0,29.70,SE,125,13.0,16.0,40,0.00,,,0.00,16,weatherlink.com 1.10,2013-04-06 23:57:00,
2013-04-06 20:13:00,62.4,38.0,29.69,SSE,167,5.0,15.0,41,0.00,,,0.00,0,weatherlink.com 1.10,2013-04-07 00:13:00,
2013-04-06 20:27:00,62.0,38.0,29.68,SSE,149,4.0,18.0,42,0.00,,,0.00,0,weatherlink.com 1.10,2013-04-07 00:27:00,
2013-04-06 20:43:00,61.8,39.0,29.68,SSE,149,9.0,16.0,43,0.00,,,0.00,0,weatherlink.com 1.10,2013-04-07 00:43:00,
2013-04-06 20:58:00,61.6,39.0,29.65,SE,128,7.0,14.0,44,0.00,,,0.00,0,weatherlink.com 1.10,2013-04-07 00:58:00,
2013-04-06 21:13:00,61.7,39.0,29.67,South,172,5.0,14.0,44,0.00,,,0.00,0,weatherlink.com 1.10,2013-04-07 01:13:00,
2013-04-06 21:28:00,61.6,40.0,29.66,SSE,162,3.0,13.0,45,0.00,,,0.00,0,weatherlink.com 1.10,2013-04-07 01:28:00,
2013-04-06 21:43:00,61.9,40.0,29.67,South,177,3.0,18.0,45,0.00,,,0.00,0,weatherlink.com 1.10,2013-04-07 01:43:00,
2013-04-06 21:58:00,61.7,40.0,29.67,SSE,166,4.0,13.0,45,0.00,,,0.00,0,weatherlink.com 1.10,2013-04-07 01:58:00,
2013-04-06 22:13:00,61.5,41.0,29.67,SSW,201,7.0,12.0,47,0.00,,,0.00,0,weatherlink.com 1.10,2013-04-07 02:13:00,
2013-04-06 22:28:00,61.6,40.0,29.66,SSE,154,6.0,14.0,46,0.00,,,0.00,0,weatherlink.com 1.10,2013-04-07 02:28:00,
2013-04-06 22:43:00,61.6,41.0,29.66,SSW,197,2.0,10.0,47,0.00,,,0.00,0,weatherlink.com 1.10,2013-04-07 02:43:00,
2013-04-06 23:14:00,61.6,42.0,29.65,South,181,6.0,13.0,48,0.00,,,0.00,0,weatherlink.com 1.10,2013-04-07 03:14:00,
2013-04-06 23:29:00,61.8,42.0,29.65,SSW,210,9.0,19.0,49,0.00,,,0.00,0,weatherlink.com 1.10,2013-04-07 03:29:00,
2013-04-06 23:44:00,62.5,42.0,29.64,South,173,4.0,14.0,48,0.00,,,0.00,0,weatherlink.com 1.10,2013-04-07 03:44:00,
2013-04-06 23:59:00,63.1,42.0,29.64,WSW,241,2.0,21.0,47,0.00,,,0.00,0,weatherlink.com 1.10,2013-04-07 03:59:00,